Regional Weather Roundup
Issued by NWS Sioux Falls, SD

Home | Current Version | Previous Version | Text Only | Print | Product List | Glossary Off
Versions: 1 2 3 4 5 6 7 8 9 10 11 12 13 14 15 16 17 18 19 20 21 22 23 24 25 26 27 28 29 30 31 32 33 34 35 36 37 38 39 40 41 42 43 44 45 46 47 48 49 50

000
ASUS43 KFSD 201110
RWRFSD

WEATHER ROUNDUP FOR SE SOUTH DAKOTA/SW MINNESOTA/NW IOWA
NATIONAL WEATHER SERVICE SIOUX FALLS SD
600 AM CDT SUN AUG 20 2017

NOTE: "FAIR" INDICATES FEW OR NO CLOUDS BELOW 12,000 FEET WITH NO
SIGNIFICANT WEATHER AND OR OBSTRUCTIONS TO VISIBILITY.


SDZ038>040-050-052>070-201200-
SOUTHEAST SOUTH DAKOTA

CITY           SKY/WX    TMP DP  RH WIND       PRES   REMARKS
BROOKINGS      CLEAR     62  60  93 NW6       29.91R
CHAMBERLAIN    CLEAR     69  64  86 N7        29.92R
HURON          CLOUDY    62  62 100 CALM      29.90S FOG
MADISON        FAIR      64  64 100 W6        29.89R
MITCHELL       PTCLDY    65  64  97 N7        29.90R
SIOUX FALLS    PTCLDY    64  62  93 SW5       29.88R
WINNER         FAIR      67  65  93 E8        29.92S
YANKTON        PTCLDY    67  61  81 CALM      29.88R
$$

MNZ071-072-080-081-089-090-097-098-201200-
SOUTHWEST MINNESOTA

CITY           SKY/WX    TMP DP  RH WIND       PRES   REMARKS
FAIRMONT       CLOUDY    67  65  93 S9        29.89S
JACKSON        CLOUDY    64  61  88 CALM      29.90R
LUVERNE        CLOUDY    61  57  88 CALM      29.90R
MARSHALL       CLOUDY    64  63  96 CALM      29.87R
MONTEVIDEO     CLEAR     63  63 100 SW3       29.87R
PIPESTONE      CLOUDY    64  63  94 CALM      29.89R
REDWOOD FALLS  CLOUDY    64  62  93 SE3       29.86S
TRACY          CLOUDY    62  62  99 CALM      29.88R
WINDOM         CLOUDY    66  63  88 SW3       29.89R
WORTHINGTON    CLOUDY    67  63  87 SW6       29.90R
$$

IAZ001>003-012>014-020>022-031-032-NEZ013-014-SDZ071-201200-
NORTHWEST IOWA

CITY           SKY/WX    TMP DP  RH WIND       PRES   REMARKS
CHEROKEE       CLOUDY    67  64  91 CALM      29.89R
DENISON        CLOUDY    66  64  94 W10       29.91R
ESTHERVILLE    CLOUDY    65  65 100 S5        29.89R
ORANGE CITY    CLOUDY    68  66  94 SE3       29.89R
SHELDON        CLOUDY    68  63  83 S8        29.87R
SIOUX CITY     CLOUDY    67  63  87 SE6       29.87R
SPENCER        CLOUDY    69  63  81 S9        29.90R
STORM LAKE     CLOUDY    64  63  94 W3        29.90R
$$

ABBREVIATIONS USED IN REMARKS
   TC - TEMPERATURE IN CELSIUS
  WCI - WIND CHILL INDEX
   HX - HEAT INDEX
  VSB - VISIBILITY





USA.gov is the U.S. government's official web portal to all federal, state and local government web resources and services.